This demonstration page uses our WeatherBlox Daily Observations layout. Learn more.

Left ArrowRight Arrow

39.08367, -84.50855

Hourly Observations for March 1, 2018

Temp ( °F °C ) Dew Point ( °F °C ) Humidity (%) Winds ( mph kmh ) Pressure ( in mb ) Visibility ( mi km ) Precip ( " mm )
12:12 am 00:12 Cloudy with Mist and Fog 52 11.1 52 11.1 100 100 N N/A 29.83 1010 3 4 N/A
12:38 am 00:38 Cloudy with Mist and Fog 52 11.1 52 11.1 100 100 N 3 6 29.83 1010 2 3 N/A
12:53 am 00:53 Cloudy with Mist and Fog 52 11.1 52 11.1 100 100 N N/A 29.80 1009 2 3 N/A
1:48 am 01:48 Cloudy with Mist and Fog 52 11 52 11 100 100 N N/A 29.83 1010 3 5 N/A
1:53 am 01:53 Cloudy with Mist and Fog 52 11.1 52 11.1 100 100 N N/A 29.78 1009 3 5 N/A
2:22 am 02:22 Cloudy with Rain 52 11.1 52 11.1 100 100 N N/A 29.80 1009 2 3 0.02 0.51
2:35 am 02:35 Cloudy with Light Rain 52 11.1 52 11.1 100 100 N N/A 29.83 1010 4 6 0.03 0.76
2:53 am 02:53 Cloudy with Rain 52 11.1 52 11.1 100 100 W 3 6 29.79 1009 3 5 0.05 1.27
3:36 am 03:36 Cloudy with Light Rain 52 11.1 52 11.1 100 100 N N/A 29.77 1008 2 3 0.03 0.76
3:53 am 03:53 Cloudy with Light Rain 52 11.1 52 11.1 100 100 W 3 6 29.73 1007 4 6 0.04 1.02
4:49 am 04:49 Cloudy with Light Rain 54 12 54 12 100 100 N N/A 29.77 1008 5 8 0.01 0.25
4:53 am 04:53 Cloudy with Light Rain 53 11.7 53 11.7 100 100 N 3 6 29.74 1007 6 10 0.01 0.25
5:01 am 05:01 Cloudy with Light Rain 52 11.1 52 11.1 100 100 NE 6 9 29.77 1008 5 8 N/A
5:19 am 05:19 Cloudy with Light Rain 52 11.1 52 11.1 100 100 N 5 7 29.74 1007 3 5 0.01 0.25
5:53 am 05:53 Cloudy 53 11.7 53 11.7 100 100 N N/A 29.70 1006 7 11 0.01 0.25
6:17 am 06:17 Cloudy with Mist and Fog 53 11.7 53 11.7 100 100 SSW 3 6 29.74 1007 3 4 N/A
6:45 am 06:45 Cloudy with Light Rain 54 12.2 54 12.2 100 100 S 6 9 29.71 1006 4 6 0.01 0.25
6:53 am 06:53 Cloudy with Light Rain 54 12.2 54 12.2 100 100 SSW 7 11 29.71 1006 5 8 0.02 0.51
7:10 am 07:10 Cloudy with Light Rain 54 12.2 54 12.2 100 100 SSW 6 9 29.71 1006 3 4 0.01 0.25
7:53 am 07:53 Cloudy with Light Rain 54 12.2 54 12.2 100 100 SW 3 6 29.69 1005 2 3 0.03 0.76
8:08 am 08:08 Cloudy with Light Rain 54 12.2 54 12.2 100 100 SW 3 6 29.68 1005 2 3 N/A
8:53 am 08:53 Cloudy with Light Rain 55 12.8 55 12.8 100 100 S 5 7 29.67 1005 3 5 0.13 3.30
9:53 am 09:53 Cloudy with Light Rain 57 13.9 57 13.9 100 100 SSW 12 19 29.63 1004 10 16 0.02 0.51
10:53 am 10:53 Cloudy with Mist and Fog 57 13.9 57 13.9 100 100 SSW 14 22 29.62 1003 4 6 N/A
11:04 am 11:04 Cloudy with Heavy Rain 57 13.9 57 13.9 100 100 SSW 14 22 29.62 1003 2 3 0.05 1.27
11:12 am 11:12 Cloudy with Light Rain 57 13.9 57 13.9 100 100 SSW 15 24 29.62 1003 2 3 0.05 1.27
11:23 am 11:23 Cloudy with Mist and Fog 57 13.9 57 13.9 100 100 SSW 14 22 29.62 1003 2 3 0.05 1.27
11:53 am 11:53 Cloudy 58 14.4 57 13.9 97 97 SW 13 20 29.61 1003 7 11 0.05 1.27
12:51 pm 12:51 Cloudy with Light Rain 59 15 57 14 94 94 SW 16 26 29.59 1002 2 3 0.02 0.51
12:53 pm 12:53 Cloudy with Rain 58 14.4 57 13.9 97 97 SW 14 22 29.57 1001 2 3 0.02 0.51
1:53 pm 13:53 Cloudy 59 15 57 13.9 93 93 SW 14 22 29.56 1001 7 11 0.03 0.76
2:53 pm 14:53 Cloudy with Light Rain 56 13.3 55 12.8 97 97 W 16 26 29.58 1002 3 5 0.09 2.29
3:53 pm 15:53 Cloudy 51 10.6 48 8.9 89 89 NW 16 26 29.68 1005 10 16 0.03 0.76
4:53 pm 16:53 Cloudy 47 8.3 41 5 80 80 NW 17 28 29.79 1009 10 16 N/A
5:53 pm 17:53 Cloudy 45 7.2 42 5.6 90 90 NW 13 20 29.86 1011 10 16 N/A
6:08 pm 18:08 Cloudy 45 7 N/A N/A NNW 17 28 29.91 1013 10 16 N/A
6:20 pm 18:20 Cloudy 44 6.7 40 4.4 85 85 WNW 17 28 29.94 1014 10 16 N/A
6:53 pm 18:53 Cloudy 43 6.1 37 2.8 80 80 WNW 8 13 29.93 1014 10 16 N/A
7:53 pm 19:53 Cloudy 44 6.7 42 5.6 93 93 WNW 16 26 29.98 1015 10 16 N/A
8:53 pm 20:53 Cloudy with Light Rain 42 5.6 39 3.9 89 89 NW 13 20 30.04 1017 10 16 N/A
9:53 pm 21:53 Cloudy with Light Rain 42 5.6 39 3.9 89 89 WNW 9 15 30.07 1018 10 16 N/A
10:46 pm 22:46 Cloudy 42 5.6 37 2.8 82 82 NNW 9 15 30.09 1019 10 16 N/A
10:53 pm 22:53 Cloudy 42 5.6 36 2.2 79 79 NW 10 17 30.10 1019 10 16 N/A
11:18 pm 23:18 Cloudy 42 5.6 36 2.2 79 79 NW 10 17 30.12 1020 10 16 N/A
11:53 pm 23:53 Cloudy 42 5.6 35 1.7 76 76 NNW 9 15 30.13 1020 10 16 N/A

Powered by AerisWeather